EHI
0 0 0 0 0 0 0 0 0 0 0 0 0 0 0 0 0 0 0 0 0 0 0 0 0 0 0 0 0 0 0 0 0 0 0 0 0 0 0 0 0 0 0
0 0 0 0 0 0 0 0 0 0 0 0 0 0 0 0 0 0 0 0 0 0 0 0 0 0 0 0 0 0 0 0 0 0 0 0 0 0 0 0 0 0 0
0 0 0 0 0 0 0 0 0 0 0 0 0 0 0 0 0 0 0 0 0 0 0 0 0 0 0 0 0 0 0 0 0 0 0 0 0 0 0 0 0 0 0
0 0 0 0 0 0 0 0 0 0 0 0 0 0 0 0 0 0 0 0 0 0 0 0 0 0 0 0 0 0 0 0 0 0 0 0 0 0 0 0 0 0 0
0 0 0 0 0 0 0 0 0 0 0 0 0 0 0 0 0 0 0 0 0 0 0 0 0 0 0 0 0 0 0 0 0 0 0 0 0 0 0 0 0 0 0
0 0 0 0 0 0 0 0 0 0 0 0 0 0 0 0 0 0 0 0 0 0 0 0 0 0 0 0 0 0 0 0 0 0 0 0 0 0 0 0 0 0 0
0 0 0 0 0 0 0 0 0 0 0 0 0 0 0 0 0 0 0 0 0 0 0 0 0 0 0 0 0 0 0 0 0 0 0 0 0 0 0 0 0 0 0
0 0 0 0 0 0 0 0 0 0 0 0 0 0 0 0 0 0 0 0 0 0 0 0 0 0 0 0 0 0 0 0 0 0 0 0 0 0 0 0 0 0 0
0 0 0 0 0 0 0 0 0 0 0 0 0 0 0 0 0 0 0 0 0 0 0 0 0 0 0 0 0 0 0 0 0 0 0 0 0 0 0 0 0 0 0
0 0 0 0 0 0 0 0 0 0 0 0 0 0 0 0 0 0 0 0 0 0 0 0 0 0 0 0 0 0 0 0 0 0 0 0 0 0 0 0 0 0 0
0 0 0 0 0 0 0 0 0 0 0 0 0 0 0 0 0 0 0 0 0 0 0 0 0 0 0 0 0 0 0 0 0 0 0 0 0 0 0 0 0 0 0
0 0 0 0 0 0 0 0 0 0 0 0 0 0 0 0 0 0 0 0 0 0 0 0 0 0 0 0 0 0 0 0 0 0 0 0 0 0 0 0 0 0 0
0 0 0 0 0 0 0 0 0 0 0 0 0 0 0 0 0 0 0 0 0 0 0 0 0 0 0 0 0 0 0 0 0 0 0 0 0 0 0 0 0 0 0
0 0 0 0 0 0 0 0 0 0 0 0 0 0 0 0 0 0 0 0 0 0 0 0 0 0 0 0 0 0 0 0 0 0 0 0 0 0 0 0 0 0 0
0 0 0 0 0 0 0 0 0 0 0 0 0 0 0 0 0 0 0 0 0 0 0 0 0 0 0 0 0 0 0 0 0 0 0 0 0 0 0 0 0 0 0
0 0 0 0 0 0 0 0 0 0 0 0 0 0 0 0 0 0 0 0 0 0 0 0 0 0 0 0 0 0 0 0 0 0 0 0 0 0 0 0 0 0 0
0 0 0 0 0 0 0 0 0 0 0 0 0 0 0 0 0 0 0 0 0 0 0 0 0 0 0 0 0 0 0 0 0 0 0 0 0 0 0 0 0 0 0
0 0 0 0 0 0 0 0 0 0 0 0 0 0 0 0 0 0 0 0 0 0 0 0 0 0 0 0 0 0 0 0 0 0 0 0 0 0 0 0 0 0 0
0 0 0 0 0 0 0 0 0 0 0 0 0 0 0 0 0 0 0 0 0 0 0 0 0 0 0 0 0 0 0 0 0 0 0 0 0 0 0 0 0 0 0
0 0 0 0 0 0 0 0 0 0 0 0 0 0 0 0 0 0 0 0 0 0 0 0 0 0 0 0 0 0 0 0 0 0 0 0 0 0 0 0 0 0 0
0 0 0 0 0 0 0 0 0 0 0 0 0 0 0 0 0 0 0 0 0 0 0 0 0 0 0 0 0 0 0 0 0 0 0 0 0 0 0 0 0 0 0
0 0 0 0 0 0 0 0 0 0 0 0 0 0 0 0 0 0 0 0 0 0 0 0 0 0 0 0 0 0 0 0 0 0 0 0 0 0 0 0 0 0 0
0 0 0 0 0 0 0 0 0 0 0 0 0 0 0 0 0 0 0 0 0 0 0 0 0 0 0 0 0 0 0 0 0 0 0 0 0 0 0 0 0 0 0
0 0 0 0 0 0 0 0 0 0 0 0 0 0 0 0 0 0 0 0 0 0 0 0 0 0 0 0 0 0 0 0 0 0 0 0 0 0 0 0 0 0 0
0 0 0 0 0 0 0 0 0 0 0 0 0 0 0 0 0 0 0 0 0 0 0 0 0 0 0 0 0 0 0 0 0 0 0 0 0 0 0 0 0 0 0
0 0 0 0 0 0 0 0 0 0 0 0 0 0 0 0 0 0 0 0 0 0 0 0 0 0 0 0 0 0 0 0 0 0 0 0 0 0 0 0 0 0 0
Wind_Speed
6 7 17 18 18 17 16 15 14 13 13 12 12 12 12 12 12 13 13 13 13 14 14 14 14 14 14 15 15 15 16 16 16 17 16 15 15 15 15 15 14 9 16
10 10 18 19 18 17 16 15 14 14 13 12 12 12 12 12 12 12 12 13 13 14 14 14 14 14 14 14 14 15 15 15 15 15 15 13 13 15 15 14 14 9 15
11 11 15 19 19 18 17 16 15 14 13 12 12 12 12 12 12 12 12 12 13 13 13 13 13 13 13 13 13 13 14 14 14 14 13 8 7 13 14 13 13 13 13
13 10 12 19 19 18 17 16 15 14 13 12 12 12 12 11 11 12 12 12 12 13 13 13 12 12 12 12 12 13 13 13 13 13 7 6 6 11 12 12 12 12 12
11 9 12 20 20 19 18 17 16 15 14 13 13 12 12 12 11 12 12 12 12 12 12 12 11 11 11 11 12 12 12 12 12 10 6 6 6 9 11 11 11 10 10
10 8 12 20 20 19 18 17 16 15 14 13 13 12 12 12 11 11 11 11 11 11 11 11 11 11 11 11 11 11 11 11 9 5 5 6 5 8 10 10 9 9 9
11 8 11 20 20 20 19 18 17 16 15 14 13 12 12 11 11 11 10 10 10 10 9 10 10 10 10 10 10 10 9 9 5 4 4 5 6 9 9 9 9 9 9
11 9 10 20 20 19 19 18 17 16 15 14 13 12 12 11 11 10 9 9 9 8 8 8 8 8 9 9 9 9 8 7 5 3 3 4 7 9 9 8 8 9 9
8 8 7 9 13 18 18 18 17 16 15 14 13 12 12 11 10 10 9 8 7 7 7 7 7 7 8 8 8 8 8 7 4 2 3 3 7 9 9 8 8 8 8
7 7 6 6 8 9 10 15 16 16 15 15 13 12 11 10 9 9 8 7 7 6 6 6 6 6 7 7 7 7 7 6 3 2 2 4 7 8 8 9 9 9 9
10 7 6 6 7 7 7 11 12 14 14 13 11 12 9 4 4 5 5 6 6 5 5 5 5 6 6 6 7 7 6 2 2 2 2 5 7 8 8 8 9 9 10
16 13 8 8 8 8 7 6 5 5 7 6 5 6 5 4 3 4 3 3 4 4 4 4 5 6 5 3 4 6 2 2 2 2 3 6 7 7 8 8 8 9 10
16 14 12 10 9 9 6 6 4 4 4 5 7 6 5 4 2 2 1 1 2 3 3 3 4 3 3 2 2 2 2 2 1 2 3 6 6 7 7 8 8 9 9
14 15 13 11 10 9 7 6 5 4 4 4 6 7 5 3 3 2 2 1 1 1 1 2 1 2 2 2 2 2 3 2 1 1 2 5 6 6 7 7 8 8 8
15 16 15 13 12 10 8 6 7 6 6 6 5 6 6 4 4 3 2 2 2 1 1 1 1 1 2 2 2 2 2 2 2 2 2 5 6 6 7 7 8 8 8
16 16 15 15 13 11 10 8 7 6 6 6 6 6 7 5 5 4 3 2 2 2 2 2 1 1 1 1 2 3 2 2 2 2 2 4 6 7 7 8 8 8 9
17 16 16 15 14 14 12 10 7 7 7 7 6 7 7 6 6 5 4 3 3 2 3 2 2 2 2 2 2 3 2 2 2 2 2 2 3 7 8 8 8 9 9
13 15 16 14 15 15 13 10 8 7 7 7 6 6 8 8 7 5 4 4 3 3 3 2 2 2 2 2 2 2 2 2 2 2 2 3 3 3 6 8 9 9 9
14 15 16 16 17 16 13 9 8 7 8 7 6 6 8 8 8 6 5 4 4 3 3 3 2 2 1 1 1 2 3 2 2 2 3 3 3 3 3 6 9 9 9
13 14 15 16 15 14 11 7 6 6 7 6 7 7 9 8 8 7 5 5 5 4 3 3 3 2 2 1 2 3 3 2 2 2 2 2 2 3 3 3 4 5 9
12 14 16 17 16 14 12 11 11 11 9 8 8 9 10 9 9 8 6 6 5 5 5 5 3 3 2 1 2 2 3 2 2 2 2 2 2 2 2 3 2 2 3
15 17 17 18 18 17 14 13 10 8 6 6 6 8 10 10 10 9 8 7 6 5 5 5 4 3 2 1 2 2 2 3 2 2 2 1 1 2 2 2 2 2 2
15 17 17 19 19 19 15 9 6 5 4 5 7 8 9 10 10 10 10 8 7 7 6 6 5 6 3 1 1 3 3 3 2 2 1 1 1 1 2 2 2 2 2
16 15 16 18 18 18 16 14 16 12 11 12 9 8 8 10 10 10 10 9 8 6 7 6 5 4 5 3 1 1 2 3 2 2 3 2 2 2 2 2 2 2 2
13 13 14 15 16 16 17 18 17 13 10 7 6 9 9 8 9 10 10 9 9 7 7 7 6 5 4 4 4 3 2 1 2 2 3 3 3 2 2 2 2 2 2
9 10 12 14 15 16 18 18 18 16 12 11 10 11 9 7 7 9 9 9 9 7 8 7 7 7 5 4 4 3 4 3 3 3 3 3 3 3 3 2 2 2 2
Wind_Direction
185 181 173 158 152 147 143 137 133 127 122 118 114 110 104 99 96 93 91 86 83 80 78 78 77 77 75 73 73 71 67 64 59 55 51 53 60 59 57 55 51 38 46
157 168 168 158 152 149 144 138 133 128 124 119 115 113 109 104 101 98 95 91 86 82 80 79 78 78 75 72 72 72 70 67 62 57 49 38 48 60 57 53 51 49 48
150 162 165 157 153 149 145 140 137 133 129 124 120 116 113 109 105 101 96 92 88 85 82 81 80 80 77 73 72 72 71 68 63 54 42 22 21 57 57 55 51 49 48
152 157 159 158 155 152 148 144 142 139 136 132 127 122 118 114 110 106 100 96 92 88 86 83 82 81 78 75 74 73 70 66 60 50 32 16 6 51 55 54 52 51 47
151 154 162 159 157 154 151 149 147 144 141 137 132 127 123 119 115 110 104 99 95 91 88 85 83 82 79 76 76 73 71 65 56 43 23 12 2 42 50 47 44 44 43
150 154 164 161 160 156 155 154 152 149 146 142 137 133 128 122 117 112 109 105 100 95 91 87 84 82 80 78 78 76 73 66 53 35 19 5 350 30 41 39 35 35 35
153 157 166 164 162 159 157 156 156 153 150 146 143 139 133 127 123 119 116 111 105 100 94 89 86 82 79 77 76 75 72 69 64 40 16 355 344 25 32 28 23 24 26
155 157 167 167 163 161 160 159 158 156 153 149 146 143 138 135 132 129 124 117 111 104 97 93 89 85 81 77 74 71 70 69 58 36 6 343 349 18 28 23 14 15 17
152 156 167 166 164 165 164 163 162 160 158 154 152 148 144 142 140 136 131 126 120 110 102 94 88 84 79 75 72 68 67 67 60 20 352 335 350 12 22 20 15 12 13
155 161 167 159 157 159 163 165 164 164 162 159 156 150 148 149 146 140 134 132 127 118 109 97 86 77 70 64 61 61 64 59 41 11 346 326 351 9 18 20 20 17 16
173 175 170 161 155 153 157 167 165 165 164 159 155 151 143 124 118 127 138 144 139 129 115 98 81 67 58 46 47 55 60 48 29 4 332 330 355 9 17 23 22 24 26
184 185 178 169 161 157 163 160 157 156 157 147 141 140 128 126 128 126 152 151 134 114 96 79 65 56 53 36 33 46 46 38 30 351 327 343 0 8 19 25 26 27 26
184 184 183 177 167 165 162 157 155 148 145 142 144 140 135 130 127 115 111 87 79 79 62 49 48 46 46 40 37 40 40 40 19 344 334 355 3 11 21 27 29 28 25
183 189 185 179 174 172 165 163 159 155 154 155 155 151 144 144 148 150 144 136 110 92 90 65 57 48 47 43 50 47 40 33 12 350 334 8 18 21 24 26 26 25 25
187 189 187 183 181 176 169 170 169 168 166 162 160 163 159 160 167 166 164 155 155 143 133 117 83 61 54 50 51 52 38 25 17 8 351 19 33 33 31 29 26 25 26
192 191 188 188 184 180 180 178 175 173 167 165 169 173 170 168 168 168 170 169 174 169 156 144 133 103 74 67 51 44 39 26 23 27 24 21 37 45 39 33 29 25 20
193 190 190 190 186 186 185 182 176 176 172 175 178 176 176 174 172 169 171 180 182 163 147 130 115 91 78 63 47 35 34 27 34 43 47 41 32 37 40 37 28 23 16
188 189 191 190 190 191 189 184 180 178 178 181 178 178 182 181 174 170 175 185 172 154 148 138 123 99 76 64 45 24 22 25 35 48 61 58 48 35 30 37 34 23 13
191 190 191 191 191 193 190 185 180 177 182 182 179 181 185 182 176 174 180 178 162 154 151 142 109 115 105 72 55 39 23 25 26 54 66 65 63 57 38 35 35 24 13
192 190 192 193 192 188 185 178 175 179 187 185 186 187 183 183 178 175 174 170 160 153 150 142 124 97 97 100 70 45 21 20 37 50 54 60 61 60 51 42 30 14 10
190 190 191 193 191 184 186 188 189 194 192 192 193 189 185 182 179 176 172 168 167 169 168 154 131 119 91 86 81 30 4 21 48 40 36 56 51 43 45 39 24 12 352
197 195 194 194 191 189 192 192 192 184 185 188 185 188 188 184 180 180 175 174 173 164 159 157 141 130 108 87 116 95 7 342 347 15 13 44 31 17 19 13 1 355 346
201 199 197 195 193 192 188 176 157 144 142 173 189 193 192 187 183 181 180 174 175 171 173 172 160 149 146 112 109 138 148 228 293 320 336 358 348 341 331 327 335 341 342
207 201 198 194 193 190 182 180 179 185 190 193 188 187 184 185 183 182 178 176 176 174 172 172 165 154 142 152 133 96 139 157 160 297 310 313 314 293 301 311 320 325 335
203 196 195 191 191 188 186 187 188 193 193 175 165 173 180 183 184 182 178 175 175 174 172 165 161 160 154 154 159 152 133 96 126 166 267 305 319 293 284 284 287 299 313
196 190 188 188 190 187 188 189 192 192 179 169 173 180 183 180 182 183 179 178 176 172 172 171 167 167 164 155 157 157 160 163 180 176 215 259 284 291 295 285 268 269 281